Location: Bamobli
(6.6379°N, 10.9396°W)
Time: 15:09:00
(UTC+00:00)

Cosmos 1515 Rocket - Pass Details

Date: 07 June 2020
Orbit: 605 x 631 km, 82.5° (Epoch: 05 July)

Event Time Altitude Azimuth Distance (km) Brightness Sun altitude
Rises 05:10:55 0° 344° (NNW) 2,849 7.1 -18.2°
Reaches altitude 10° 05:13:13 10° 337° (NNW) 1,945 6.2 -17.7°
Maximum altitude 05:17:16 41° 267° (W) 876 3.9 -16.8°
Enters shadow 05:19:12 26° 214° (SW) 1,210 4.6 -16.3°
